Year,Month,Day,Hour,Minute,Value (Times are PST for temperature in C)
2016,06,15,00,00,9.40
2016,06,15,00,01,9.40
2016,06,15,00,02,9.30
2016,06,15,00,03,9.30
2016,06,15,00,04,9.30
2016,06,15,00,05,9.30
2016,06,15,00,06,9.30
2016,06,15,00,07,9.30
2016,06,15,00,08,9.20
2016,06,15,00,09,9.20
2016,06,15,00,10,9.20
2016,06,15,00,11,9.20
2016,06,15,00,12,9.20
2016,06,15,00,13,9.20
2016,06,15,00,14,9.20
2016,06,15,00,15,9.20
2016,06,15,00,16,9.20
2016,06,15,00,17,9.20
2016,06,15,00,18,9.20
2016,06,15,00,19,9.20
2016,06,15,00,20,9.20
2016,06,15,00,21,9.20
2016,06,15,00,22,9.20
2016,06,15,00,23,9.20
2016,06,15,00,24,9.20
2016,06,15,00,25,9.20
2016,06,15,00,26,9.20
2016,06,15,00,27,9.30
2016,06,15,00,28,9.30
2016,06,15,00,29,9.30
2016,06,15,00,30,9.30
2016,06,15,00,31,9.30
2016,06,15,00,32,9.30
2016,06,15,00,33,9.40
2016,06,15,00,34,9.40
2016,06,15,00,35,9.40
2016,06,15,00,36,9.40
2016,06,15,00,37,9.40
2016,06,15,00,38,9.40
2016,06,15,00,39,9.40
2016,06,15,00,40,9.40
2016,06,15,00,41,9.40
2016,06,15,00,42,9.30
2016,06,15,00,43,9.30
2016,06,15,00,44,9.30
2016,06,15,00,45,9.30
2016,06,15,00,46,9.30
2016,06,15,00,47,9.30
2016,06,15,00,48,9.30
2016,06,15,00,49,9.30
2016,06,15,00,50,9.30
2016,06,15,00,51,9.30
2016,06,15,00,52,9.30
2016,06,15,00,53,9.30
2016,06,15,00,54,9.30
2016,06,15,00,55,9.30
2016,06,15,00,56,9.30
2016,06,15,00,57,9.30
2016,06,15,00,58,9.30
2016,06,15,00,59,9.30
2016,06,15,01,00,9.30
2016,06,15,01,01,9.30
2016,06,15,01,02,9.30
2016,06,15,01,03,9.30
2016,06,15,01,04,9.30
2016,06,15,01,05,9.30
2016,06,15,01,06,9.30
2016,06,15,01,07,9.30
2016,06,15,01,08,9.30
2016,06,15,01,09,9.30
2016,06,15,01,10,9.30
2016,06,15,01,11,9.30
2016,06,15,01,12,9.20
2016,06,15,01,13,9.20
2016,06,15,01,14,9.20
2016,06,15,01,15,9.20
2016,06,15,01,16,9.20
2016,06,15,01,17,9.20
2016,06,15,01,18,9.20
2016,06,15,01,19,9.20
2016,06,15,01,20,9.20
2016,06,15,01,21,9.20
2016,06,15,01,22,9.20
2016,06,15,01,23,9.20
2016,06,15,01,24,9.20
2016,06,15,01,25,9.20
2016,06,15,01,26,9.20
2016,06,15,01,27,9.20
2016,06,15,01,28,9.20
2016,06,15,01,29,9.20
2016,06,15,01,30,9.20
2016,06,15,01,31,9.20
2016,06,15,01,32,9.20
2016,06,15,01,33,9.20
2016,06,15,01,34,9.20
2016,06,15,01,35,9.20
2016,06,15,01,36,9.20
2016,06,15,01,37,9.20
2016,06,15,01,38,9.20
2016,06,15,01,39,9.20
2016,06,15,01,40,9.20
2016,06,15,01,41,9.10
2016,06,15,01,42,9.10
2016,06,15,01,43,9.10
2016,06,15,01,44,9.10
2016,06,15,01,45,9.00
2016,06,15,01,46,9.00
2016,06,15,01,47,9.00
2016,06,15,01,48,9.00
2016,06,15,01,49,9.00
2016,06,15,01,50,9.00
2016,06,15,01,51,9.00
2016,06,15,01,52,9.00
2016,06,15,01,53,8.90
2016,06,15,01,54,8.90
2016,06,15,01,55,8.90
2016,06,15,01,56,8.90
2016,06,15,01,57,8.90
2016,06,15,01,58,8.90
2016,06,15,01,59,8.90
2016,06,15,02,00,8.90
2016,06,15,02,01,9.00
2016,06,15,02,02,9.00
2016,06,15,02,03,9.00
2016,06,15,02,04,9.00
2016,06,15,02,05,9.00
2016,06,15,02,06,9.00
2016,06,15,02,07,9.00
2016,06,15,02,08,9.00
2016,06,15,02,09,9.00
2016,06,15,02,10,9.00
2016,06,15,02,11,9.00
2016,06,15,02,12,9.00
2016,06,15,02,13,8.90
2016,06,15,02,14,8.90
2016,06,15,02,15,8.90
2016,06,15,02,16,8.90
2016,06,15,02,17,8.90
2016,06,15,02,18,8.90
2016,06,15,02,19,9.00
2016,06,15,02,20,9.00
2016,06,15,02,21,9.00
2016,06,15,02,22,9.00
2016,06,15,02,23,9.00
2016,06,15,02,24,9.00
2016,06,15,02,25,9.00
2016,06,15,02,26,8.90
2016,06,15,02,27,8.90
2016,06,15,02,28,8.90
2016,06,15,02,29,8.90
2016,06,15,02,30,8.90
2016,06,15,02,31,8.90
2016,06,15,02,32,8.90
2016,06,15,02,33,8.90
2016,06,15,02,34,8.90
2016,06,15,02,35,8.90
2016,06,15,02,36,9.00
2016,06,15,02,37,9.00
2016,06,15,02,38,9.00
2016,06,15,02,39,9.10
2016,06,15,02,40,9.10
2016,06,15,02,41,9.20
2016,06,15,02,42,9.20
2016,06,15,02,43,9.20
2016,06,15,02,44,9.20
2016,06,15,02,45,9.20
2016,06,15,02,46,9.30
2016,06,15,02,47,9.30
2016,06,15,02,48,9.40
2016,06,15,02,49,9.40
2016,06,15,02,50,9.40
2016,06,15,02,51,9.50
2016,06,15,02,52,9.50
2016,06,15,02,53,9.50
2016,06,15,02,54,9.50
2016,06,15,02,55,9.60
2016,06,15,02,56,9.60
2016,06,15,02,57,9.60
2016,06,15,02,58,9.70
2016,06,15,02,59,9.70
2016,06,15,03,00,9.70
2016,06,15,03,01,9.70
2016,06,15,03,02,9.70
2016,06,15,03,03,9.70
2016,06,15,03,04,9.70
2016,06,15,03,05,9.80
2016,06,15,03,06,9.80
2016,06,15,03,07,9.80
2016,06,15,03,08,9.90
2016,06,15,03,09,9.90
2016,06,15,03,10,9.90
2016,06,15,03,11,9.90
2016,06,15,03,12,9.90
2016,06,15,03,13,9.90
2016,06,15,03,14,9.90
2016,06,15,03,15,9.90
2016,06,15,03,16,9.90
2016,06,15,03,17,9.90
2016,06,15,03,18,9.90
2016,06,15,03,19,9.80
2016,06,15,03,20,9.80
2016,06,15,03,21,9.80
2016,06,15,03,22,9.80
2016,06,15,03,23,9.80
2016,06,15,03,24,9.80
2016,06,15,03,25,9.80
2016,06,15,03,26,9.70
2016,06,15,03,27,9.70
2016,06,15,03,28,9.70
2016,06,15,03,29,9.60
2016,06,15,03,30,9.60
2016,06,15,03,31,9.50
2016,06,15,03,32,9.50
2016,06,15,03,33,9.40
2016,06,15,03,34,9.40
2016,06,15,03,35,9.30
2016,06,15,03,36,9.30
2016,06,15,03,37,9.30
2016,06,15,03,38,9.20
2016,06,15,03,39,9.20
2016,06,15,03,40,9.20
2016,06,15,03,41,9.20
2016,06,15,03,42,9.20
2016,06,15,03,43,9.20
2016,06,15,03,44,9.20
2016,06,15,03,45,9.20
2016,06,15,03,46,9.10
2016,06,15,03,47,9.10
2016,06,15,03,48,9.10
2016,06,15,03,49,9.10
2016,06,15,03,50,9.10
2016,06,15,03,51,9.10
2016,06,15,03,52,9.10
2016,06,15,03,53,9.10
2016,06,15,03,54,9.10
2016,06,15,03,55,9.10
2016,06,15,03,56,9.10
2016,06,15,03,57,9.10
2016,06,15,03,58,9.10
2016,06,15,03,59,9.10
2016,06,15,04,00,9.10
2016,06,15,04,01,9.10
2016,06,15,04,02,9.10
2016,06,15,04,03,9.10
2016,06,15,04,04,9.10
2016,06,15,04,05,9.10
2016,06,15,04,06,9.10
2016,06,15,04,07,9.10
2016,06,15,04,08,9.10
2016,06,15,04,09,9.10
2016,06,15,04,10,9.10
2016,06,15,04,11,9.10
2016,06,15,04,12,9.10
2016,06,15,04,13,9.00
2016,06,15,04,14,9.00
2016,06,15,04,15,9.00
2016,06,15,04,16,9.00
2016,06,15,04,17,9.00
2016,06,15,04,18,8.90
2016,06,15,04,19,8.90
2016,06,15,04,20,8.90
2016,06,15,04,21,8.90
2016,06,15,04,22,8.90
2016,06,15,04,23,8.80
2016,06,15,04,24,8.80
2016,06,15,04,25,8.80
2016,06,15,04,26,8.70
2016,06,15,04,27,8.70
2016,06,15,04,28,8.70
2016,06,15,04,29,8.70
2016,06,15,04,30,8.70
2016,06,15,04,31,8.70
2016,06,15,04,32,8.60
2016,06,15,04,33,8.60
2016,06,15,04,34,8.50
2016,06,15,04,35,8.50
2016,06,15,04,36,8.50
2016,06,15,04,37,8.40
2016,06,15,04,38,8.40
2016,06,15,04,39,8.40
2016,06,15,04,40,8.40
2016,06,15,04,41,8.40
2016,06,15,04,42,8.40
2016,06,15,04,43,8.30
2016,06,15,04,44,8.30
2016,06,15,04,45,8.30
2016,06,15,04,46,8.30
2016,06,15,04,47,8.30
2016,06,15,04,48,8.30
2016,06,15,04,49,8.30
2016,06,15,04,50,8.30
2016,06,15,04,51,8.30
2016,06,15,04,52,8.30
2016,06,15,04,53,8.30
2016,06,15,04,54,8.30
2016,06,15,04,55,8.30
2016,06,15,04,56,8.30
2016,06,15,04,57,8.30
2016,06,15,04,58,8.30
2016,06,15,04,59,8.30
2016,06,15,05,00,8.20
2016,06,15,05,01,8.20
2016,06,15,05,02,8.20
2016,06,15,05,03,8.20
2016,06,15,05,04,8.20
2016,06,15,05,05,8.20
2016,06,15,05,06,8.20
2016,06,15,05,07,8.20
2016,06,15,05,08,8.20
2016,06,15,05,09,8.20
2016,06,15,05,10,8.20
2016,06,15,05,11,8.20
2016,06,15,05,12,8.20
2016,06,15,05,13,8.20
2016,06,15,05,14,8.20
2016,06,15,05,15,8.20
2016,06,15,05,16,8.20
2016,06,15,05,17,8.20
2016,06,15,05,18,8.20
2016,06,15,05,19,8.20
2016,06,15,05,20,8.20
2016,06,15,05,21,8.20
2016,06,15,05,22,8.20
2016,06,15,05,23,8.20
2016,06,15,05,24,8.20
2016,06,15,05,25,8.20
2016,06,15,05,26,8.20
2016,06,15,05,27,8.20
2016,06,15,05,28,8.20
2016,06,15,05,29,8.20
2016,06,15,05,30,8.20
2016,06,15,05,31,8.20
2016,06,15,05,32,8.20
2016,06,15,05,33,8.20
2016,06,15,05,34,8.20
2016,06,15,05,35,8.20
2016,06,15,05,36,8.20
2016,06,15,05,37,8.20
2016,06,15,05,38,8.20
2016,06,15,05,39,8.20
2016,06,15,05,40,8.20
2016,06,15,05,41,8.20
2016,06,15,05,42,8.20
2016,06,15,05,43,8.20
2016,06,15,05,44,8.20
2016,06,15,05,45,8.20
2016,06,15,05,46,8.20
2016,06,15,05,47,8.20
2016,06,15,05,48,8.30
2016,06,15,05,49,8.30
2016,06,15,05,50,8.30
2016,06,15,05,51,8.30
2016,06,15,05,52,8.30
2016,06,15,05,53,8.30
2016,06,15,05,54,8.30
2016,06,15,05,55,8.40
2016,06,15,05,56,8.40
2016,06,15,05,57,8.40
2016,06,15,05,58,8.40
2016,06,15,05,59,8.40
2016,06,15,06,00,8.40
2016,06,15,06,01,8.40
2016,06,15,06,02,8.50
2016,06,15,06,03,8.50
2016,06,15,06,04,8.50
2016,06,15,06,05,8.50
2016,06,15,06,06,8.50
2016,06,15,06,07,8.50
2016,06,15,06,08,8.50
2016,06,15,06,09,8.50
2016,06,15,06,10,8.50
2016,06,15,06,11,8.50
2016,06,15,06,12,8.50
2016,06,15,06,13,8.50
2016,06,15,06,14,8.50
2016,06,15,06,15,8.50
2016,06,15,06,16,8.50
2016,06,15,06,17,8.50
2016,06,15,06,18,8.50
2016,06,15,06,19,8.50
2016,06,15,06,20,8.50
2016,06,15,06,21,8.50
2016,06,15,06,22,8.50
2016,06,15,06,23,8.50
2016,06,15,06,24,8.50
2016,06,15,06,25,8.40
2016,06,15,06,26,8.40
2016,06,15,06,27,8.40
2016,06,15,06,28,8.40
2016,06,15,06,29,8.40
2016,06,15,06,30,8.50
2016,06,15,06,31,8.50
2016,06,15,06,32,8.50
2016,06,15,06,33,8.50
2016,06,15,06,34,8.50
2016,06,15,06,35,8.50
2016,06,15,06,36,8.50
2016,06,15,06,37,8.50
2016,06,15,06,38,8.50
2016,06,15,06,39,8.50
2016,06,15,06,40,8.50
2016,06,15,06,41,8.50
2016,06,15,06,42,8.50
2016,06,15,06,43,8.50
2016,06,15,06,44,8.50
2016,06,15,06,45,8.50
2016,06,15,06,46,8.50
2016,06,15,06,47,8.50
2016,06,15,06,48,8.50
2016,06,15,06,49,8.50
2016,06,15,06,50,8.50
2016,06,15,06,51,8.50
2016,06,15,06,52,8.50
2016,06,15,06,53,8.50
2016,06,15,06,54,8.50
2016,06,15,06,55,8.50
2016,06,15,06,56,8.40
2016,06,15,06,57,8.40
2016,06,15,06,58,8.40
2016,06,15,06,59,8.40
2016,06,15,07,00,8.40
2016,06,15,07,01,8.40
2016,06,15,07,02,8.40
2016,06,15,07,03,8.40
2016,06,15,07,04,8.40
2016,06,15,07,05,8.40
2016,06,15,07,06,8.40
2016,06,15,07,07,8.40
2016,06,15,07,08,8.40
2016,06,15,07,09,8.40
2016,06,15,07,10,8.40
2016,06,15,07,11,8.50
2016,06,15,07,12,8.50
2016,06,15,07,13,8.50
2016,06,15,07,14,8.50
2016,06,15,07,15,8.50
2016,06,15,07,16,8.50
2016,06,15,07,17,8.50
2016,06,15,07,18,8.50
2016,06,15,07,19,8.50
2016,06,15,07,20,8.50
2016,06,15,07,21,8.50
2016,06,15,07,22,8.50
2016,06,15,07,23,8.50
2016,06,15,07,24,8.50
2016,06,15,07,25,8.50
2016,06,15,07,26,8.50
2016,06,15,07,27,8.50
2016,06,15,07,28,8.50
2016,06,15,07,29,8.50
2016,06,15,07,30,8.50
2016,06,15,07,31,8.50
2016,06,15,07,32,8.50
2016,06,15,07,33,8.50
2016,06,15,07,34,8.50
2016,06,15,07,35,8.50
2016,06,15,07,36,8.60
2016,06,15,07,37,8.60
2016,06,15,07,38,8.60
2016,06,15,07,39,8.60
2016,06,15,07,40,8.60
2016,06,15,07,41,8.60
2016,06,15,07,42,8.60
2016,06,15,07,43,8.60
2016,06,15,07,44,8.60
2016,06,15,07,45,8.60
2016,06,15,07,46,8.60
2016,06,15,07,47,8.60
2016,06,15,07,48,8.60
2016,06,15,07,49,8.60
2016,06,15,07,50,8.60
2016,06,15,07,51,8.60
2016,06,15,07,52,8.60
2016,06,15,07,53,8.60
2016,06,15,07,54,8.60
2016,06,15,07,55,8.60
2016,06,15,07,56,8.60
2016,06,15,07,57,8.60
2016,06,15,07,58,8.60
2016,06,15,07,59,8.60
2016,06,15,08,00,8.60
2016,06,15,08,01,8.60
2016,06,15,08,02,8.50
2016,06,15,08,03,8.50
2016,06,15,08,04,8.50
2016,06,15,08,05,8.50
2016,06,15,08,06,8.50
2016,06,15,08,07,8.50
2016,06,15,08,08,8.50
2016,06,15,08,09,8.50
2016,06,15,08,10,8.40
2016,06,15,08,11,8.40
2016,06,15,08,12,8.40
2016,06,15,08,13,8.40
2016,06,15,08,14,8.40
2016,06,15,08,15,8.30
2016,06,15,08,16,8.30
2016,06,15,08,17,8.30
2016,06,15,08,18,8.30
2016,06,15,08,19,8.30
2016,06,15,08,20,8.30
2016,06,15,08,21,8.30
2016,06,15,08,22,8.40
2016,06,15,08,23,8.40
2016,06,15,08,24,8.40
2016,06,15,08,25,8.40
2016,06,15,08,26,8.40
2016,06,15,08,27,8.40
2016,06,15,08,28,8.40
2016,06,15,08,29,8.40
2016,06,15,08,30,8.40
2016,06,15,08,31,8.50
2016,06,15,08,32,8.50
2016,06,15,08,33,8.50
2016,06,15,08,34,8.50
2016,06,15,08,35,8.60
2016,06,15,08,36,8.60
2016,06,15,08,37,8.60
2016,06,15,08,38,8.70
2016,06,15,08,39,8.70
2016,06,15,08,40,8.70
2016,06,15,08,41,8.70
2016,06,15,08,42,8.70
2016,06,15,08,43,8.80
2016,06,15,08,44,8.80
2016,06,15,08,45,8.90
2016,06,15,08,46,8.90
2016,06,15,08,47,9.00
2016,06,15,08,48,9.10
2016,06,15,08,49,9.10
2016,06,15,08,50,9.20
2016,06,15,08,51,9.20
2016,06,15,08,52,9.30
2016,06,15,08,53,9.40
2016,06,15,08,54,9.40
2016,06,15,08,55,9.40
2016,06,15,08,56,9.50
2016,06,15,08,57,9.50
2016,06,15,08,58,9.60
2016,06,15,08,59,9.60
2016,06,15,09,00,9.60
2016,06,15,09,01,9.60
2016,06,15,09,02,9.70
2016,06,15,09,03,9.70
2016,06,15,09,04,9.70
2016,06,15,09,05,9.70
2016,06,15,09,06,9.70
2016,06,15,09,07,9.70
2016,06,15,09,08,9.80
2016,06,15,09,09,9.80
2016,06,15,09,10,9.90
2016,06,15,09,11,9.90
2016,06,15,09,12,9.80
2016,06,15,09,13,9.80
2016,06,15,09,14,9.70
2016,06,15,09,15,9.70
2016,06,15,09,16,9.70
2016,06,15,09,17,9.70
2016,06,15,09,18,9.80
2016,06,15,09,19,9.80
2016,06,15,09,20,9.80
2016,06,15,09,21,9.70
2016,06,15,09,22,9.70
2016,06,15,09,23,9.70
2016,06,15,09,24,9.70
2016,06,15,09,25,9.70
2016,06,15,09,26,9.70
2016,06,15,09,27,9.70
2016,06,15,09,28,9.70
2016,06,15,09,29,9.80
2016,06,15,09,30,9.80
2016,06,15,09,31,9.90
2016,06,15,09,32,9.90
2016,06,15,09,33,9.90
2016,06,15,09,34,9.90
2016,06,15,09,35,9.90
2016,06,15,09,36,9.90
2016,06,15,09,37,9.90
2016,06,15,09,38,9.90
2016,06,15,09,39,9.90
2016,06,15,09,40,9.90
2016,06,15,09,41,9.90
2016,06,15,09,42,9.90
2016,06,15,09,43,9.90
2016,06,15,09,44,9.90
2016,06,15,09,45,9.90
2016,06,15,09,46,9.80
2016,06,15,09,47,9.80
2016,06,15,09,48,9.80
2016,06,15,09,49,9.80
2016,06,15,09,50,9.80
2016,06,15,09,51,9.90
2016,06,15,09,52,9.90
2016,06,15,09,53,9.90
2016,06,15,09,54,9.90
2016,06,15,09,55,9.90
2016,06,15,09,56,9.90
2016,06,15,09,57,9.90
2016,06,15,09,58,9.90
2016,06,15,09,59,9.90
2016,06,15,10,00,9.90
2016,06,15,10,01,9.90
2016,06,15,10,02,9.90
2016,06,15,10,03,9.90
2016,06,15,10,04,9.90
2016,06,15,10,05,10.00
2016,06,15,10,06,10.10
2016,06,15,10,07,10.10
2016,06,15,10,08,10.10
2016,06,15,10,09,10.10
2016,06,15,10,10,10.10
2016,06,15,10,11,10.10
2016,06,15,10,12,10.10
2016,06,15,10,13,10.20
2016,06,15,10,14,10.20
2016,06,15,10,15,10.20
2016,06,15,10,16,10.20
2016,06,15,10,17,10.20
2016,06,15,10,18,10.10
2016,06,15,10,19,10.10
2016,06,15,10,20,10.10
2016,06,15,10,21,10.10
2016,06,15,10,22,10.20
2016,06,15,10,23,10.20
2016,06,15,10,24,10.20
2016,06,15,10,25,10.20
2016,06,15,10,26,10.30
2016,06,15,10,27,10.40
2016,06,15,10,28,10.40
2016,06,15,10,29,10.50
2016,06,15,10,30,10.60
2016,06,15,10,31,10.60
2016,06,15,10,32,10.70
2016,06,15,10,33,10.60
2016,06,15,10,34,10.60
2016,06,15,10,35,10.60
2016,06,15,10,36,10.70
2016,06,15,10,37,10.80
2016,06,15,10,38,10.80
2016,06,15,10,39,10.90
2016,06,15,10,40,10.90
2016,06,15,10,41,10.90
2016,06,15,10,42,10.90
2016,06,15,10,43,10.80
2016,06,15,10,44,10.80
2016,06,15,10,45,10.80
2016,06,15,10,46,10.90
2016,06,15,10,47,10.90
2016,06,15,10,48,10.90
2016,06,15,10,49,10.90
2016,06,15,10,50,10.90
2016,06,15,10,51,10.90
2016,06,15,10,52,10.90
2016,06,15,10,53,11.00
2016,06,15,10,54,11.10
2016,06,15,10,55,11.10
2016,06,15,10,56,11.20
2016,06,15,10,57,11.30
2016,06,15,10,58,11.30
2016,06,15,10,59,11.20
2016,06,15,11,00,11.20
2016,06,15,11,01,11.10
2016,06,15,11,02,11.10
2016,06,15,11,03,11.10
2016,06,15,11,04,11.10
2016,06,15,11,05,11.20
2016,06,15,11,06,11.30
2016,06,15,11,07,11.30
2016,06,15,11,08,11.30
2016,06,15,11,09,11.30
2016,06,15,11,10,11.40
2016,06,15,11,11,11.50
2016,06,15,11,12,11.60
2016,06,15,11,13,11.60
2016,06,15,11,14,11.70
2016,06,15,11,15,11.80
2016,06,15,11,16,11.90
2016,06,15,11,17,11.90
2016,06,15,11,18,12.00
2016,06,15,11,19,12.00
2016,06,15,11,20,12.10
2016,06,15,11,21,12.20
2016,06,15,11,22,12.20
2016,06,15,11,23,12.20
2016,06,15,11,24,12.20
2016,06,15,11,25,12.20
2016,06,15,11,26,12.10
2016,06,15,11,27,12.00
2016,06,15,11,28,12.00
2016,06,15,11,29,12.00
2016,06,15,11,30,12.00
2016,06,15,11,31,11.90
2016,06,15,11,32,11.90
2016,06,15,11,33,12.00
2016,06,15,11,34,12.00
2016,06,15,11,35,12.00
2016,06,15,11,36,12.00
2016,06,15,11,37,11.90
2016,06,15,11,38,11.80
2016,06,15,11,39,11.90
2016,06,15,11,40,11.90
2016,06,15,11,41,12.10
2016,06,15,11,42,12.20
2016,06,15,11,43,12.30
2016,06,15,11,44,12.50
2016,06,15,11,45,12.50
2016,06,15,11,46,12.50
2016,06,15,11,47,12.40
2016,06,15,11,48,12.30
2016,06,15,11,49,12.30
2016,06,15,11,50,12.40
2016,06,15,11,51,12.40
2016,06,15,11,52,12.50
2016,06,15,11,53,12.50
2016,06,15,11,54,12.30
2016,06,15,11,55,12.30
2016,06,15,11,56,12.30
2016,06,15,11,57,12.20
2016,06,15,11,58,12.30
2016,06,15,11,59,12.50
2016,06,15,12,00,12.70
2016,06,15,12,01,12.70
2016,06,15,12,02,12.70
2016,06,15,12,03,12.70
2016,06,15,12,04,12.70
2016,06,15,12,05,12.80
2016,06,15,12,06,12.80
2016,06,15,12,07,12.80
2016,06,15,12,08,12.90
2016,06,15,12,09,13.00
2016,06,15,12,10,13.00
2016,06,15,12,11,13.10
2016,06,15,12,12,13.20
2016,06,15,12,13,13.30
2016,06,15,12,14,13.20
2016,06,15,12,15,13.20
2016,06,15,12,16,13.10
2016,06,15,12,17,13.10
2016,06,15,12,18,13.20
2016,06,15,12,19,13.30
2016,06,15,12,20,13.30
2016,06,15,12,21,13.40
2016,06,15,12,22,13.40
2016,06,15,12,23,13.40
2016,06,15,12,24,13.30
2016,06,15,12,25,13.30
2016,06,15,12,26,13.40
2016,06,15,12,27,13.50
2016,06,15,12,28,13.50
2016,06,15,12,29,13.60
2016,06,15,12,30,13.70
2016,06,15,12,31,13.70
2016,06,15,12,32,13.70
2016,06,15,12,33,13.70
2016,06,15,12,34,13.60
2016,06,15,12,35,13.60
2016,06,15,12,36,13.70
2016,06,15,12,37,13.80
2016,06,15,12,38,13.80
2016,06,15,12,39,13.80
2016,06,15,12,40,13.80
2016,06,15,12,41,13.90
2016,06,15,12,42,13.90
2016,06,15,12,43,14.00
2016,06,15,12,44,14.10
2016,06,15,12,45,14.20
2016,06,15,12,46,14.30
2016,06,15,12,47,14.40
2016,06,15,12,48,14.50
2016,06,15,12,49,14.50
2016,06,15,12,50,14.50
2016,06,15,12,51,14.50
2016,06,15,12,52,14.50
2016,06,15,12,53,14.40
2016,06,15,12,54,14.20
2016,06,15,12,55,14.00
2016,06,15,12,56,13.90
2016,06,15,12,57,13.80
2016,06,15,12,58,13.80
2016,06,15,12,59,13.80
2016,06,15,13,00,13.70
2016,06,15,13,01,13.70
2016,06,15,13,02,13.70
2016,06,15,13,03,13.60
2016,06,15,13,04,13.50
2016,06,15,13,05,13.50
2016,06,15,13,06,13.40
2016,06,15,13,07,13.50
2016,06,15,13,08,13.50
2016,06,15,13,09,13.50
2016,06,15,13,10,13.50
2016,06,15,13,11,13.50
2016,06,15,13,12,13.60
2016,06,15,13,13,13.70
2016,06,15,13,14,13.70
2016,06,15,13,15,13.80
2016,06,15,13,16,13.90
2016,06,15,13,17,14.00
2016,06,15,13,18,13.90
2016,06,15,13,19,13.80
2016,06,15,13,20,13.80
2016,06,15,13,21,13.80
2016,06,15,13,22,13.80
2016,06,15,13,23,13.80
2016,06,15,13,24,13.80
2016,06,15,13,25,13.90
2016,06,15,13,26,13.90
2016,06,15,13,27,13.90
2016,06,15,13,28,13.90
2016,06,15,13,29,13.80
2016,06,15,13,30,13.90
2016,06,15,13,31,14.00
2016,06,15,13,32,14.10
2016,06,15,13,33,14.00
2016,06,15,13,34,14.00
2016,06,15,13,35,14.00
2016,06,15,13,36,13.90
2016,06,15,13,37,14.00
2016,06,15,13,38,14.00
2016,06,15,13,39,14.10
2016,06,15,13,40,14.20
2016,06,15,13,41,14.10
2016,06,15,13,42,14.20
2016,06,15,13,43,14.20
2016,06,15,13,44,14.20
2016,06,15,13,45,14.10
2016,06,15,13,46,14.00
2016,06,15,13,47,14.00
2016,06,15,13,48,14.00
2016,06,15,13,49,14.00
2016,06,15,13,50,14.00
2016,06,15,13,51,14.10
2016,06,15,13,52,14.20
2016,06,15,13,53,14.10
2016,06,15,13,54,14.10
2016,06,15,13,55,14.10
2016,06,15,13,56,14.10
2016,06,15,13,57,14.10
2016,06,15,13,58,14.20
2016,06,15,13,59,14.20
2016,06,15,14,00,14.20
2016,06,15,14,01,14.20
2016,06,15,14,02,14.20
2016,06,15,14,03,14.20
2016,06,15,14,04,14.20
2016,06,15,14,05,14.20
2016,06,15,14,06,14.20
2016,06,15,14,07,14.30
2016,06,15,14,08,14.40
2016,06,15,14,09,14.40
2016,06,15,14,10,14.40
2016,06,15,14,11,14.30
2016,06,15,14,12,14.20
2016,06,15,14,13,14.10
2016,06,15,14,14,14.20
2016,06,15,14,15,14.20
2016,06,15,14,16,14.20
2016,06,15,14,17,14.20
2016,06,15,14,18,14.20
2016,06,15,14,19,14.20
2016,06,15,14,20,14.20
2016,06,15,14,21,14.20
2016,06,15,14,22,14.10
2016,06,15,14,23,14.10
2016,06,15,14,24,14.00
2016,06,15,14,25,14.00
2016,06,15,14,26,14.00
2016,06,15,14,27,14.10
2016,06,15,14,28,14.20
2016,06,15,14,29,14.20
2016,06,15,14,30,14.30
2016,06,15,14,31,14.40
2016,06,15,14,32,14.50
2016,06,15,14,33,14.50
2016,06,15,14,34,14.60
2016,06,15,14,35,14.60
2016,06,15,14,36,14.60
2016,06,15,14,37,14.50
2016,06,15,14,38,14.50
2016,06,15,14,39,14.50
2016,06,15,14,40,14.60
2016,06,15,14,41,14.60
2016,06,15,14,42,14.70
2016,06,15,14,43,14.60
2016,06,15,14,44,14.50
2016,06,15,14,45,14.50
2016,06,15,14,46,14.40
2016,06,15,14,47,14.40
2016,06,15,14,48,14.30
2016,06,15,14,49,14.30
2016,06,15,14,50,14.40
2016,06,15,14,51,14.40
2016,06,15,14,52,14.30
2016,06,15,14,53,14.30
2016,06,15,14,54,14.30
2016,06,15,14,55,14.30
2016,06,15,14,56,14.20
2016,06,15,14,57,14.20
2016,06,15,14,58,14.10
2016,06,15,14,59,14.10
2016,06,15,15,00,14.20
2016,06,15,15,01,14.20
2016,06,15,15,02,14.20
2016,06,15,15,03,14.20
2016,06,15,15,04,14.20
2016,06,15,15,05,14.20
2016,06,15,15,06,14.20
2016,06,15,15,07,14.20
2016,06,15,15,08,14.20
2016,06,15,15,09,14.20
2016,06,15,15,10,14.30
2016,06,15,15,11,14.30
2016,06,15,15,12,14.30
2016,06,15,15,13,14.30
2016,06,15,15,14,14.40
2016,06,15,15,15,14.40
2016,06,15,15,16,14.50
2016,06,15,15,17,14.60
2016,06,15,15,18,14.80
2016,06,15,15,19,14.80
2016,06,15,15,20,14.80
2016,06,15,15,21,14.80
2016,06,15,15,22,14.80
2016,06,15,15,23,14.80
2016,06,15,15,24,14.80
2016,06,15,15,25,14.80
2016,06,15,15,26,14.80
2016,06,15,15,27,14.70
2016,06,15,15,28,14.60
2016,06,15,15,29,14.60
2016,06,15,15,30,14.60
2016,06,15,15,31,14.70
2016,06,15,15,32,14.80
2016,06,15,15,33,14.80
2016,06,15,15,34,14.80
2016,06,15,15,35,14.80
2016,06,15,15,36,14.80
2016,06,15,15,37,14.80
2016,06,15,15,38,14.80
2016,06,15,15,39,14.80
2016,06,15,15,40,14.80
2016,06,15,15,41,14.80
2016,06,15,15,42,14.80
2016,06,15,15,43,14.80
2016,06,15,15,44,15.00
2016,06,15,15,45,15.00
2016,06,15,15,46,15.10
2016,06,15,15,47,15.10
2016,06,15,15,48,15.10
2016,06,15,15,49,15.10
2016,06,15,15,50,15.10
2016,06,15,15,51,15.10
2016,06,15,15,52,15.10
2016,06,15,15,53,15.00
2016,06,15,15,54,14.90
2016,06,15,15,55,14.90
2016,06,15,15,56,14.90
2016,06,15,15,57,14.80
2016,06,15,15,58,14.80
2016,06,15,15,59,14.90
2016,06,15,16,00,15.00
2016,06,15,16,01,15.10
2016,06,15,16,02,15.10
2016,06,15,16,03,15.20
2016,06,15,16,04,15.30
2016,06,15,16,05,15.50
2016,06,15,16,06,15.50
2016,06,15,16,07,15.60
2016,06,15,16,08,15.50
2016,06,15,16,09,15.50
2016,06,15,16,10,15.40
2016,06,15,16,11,15.40
2016,06,15,16,12,15.40
2016,06,15,16,13,15.40
2016,06,15,16,14,15.30
2016,06,15,16,15,15.30
2016,06,15,16,16,15.40
2016,06,15,16,17,15.40
2016,06,15,16,18,15.50
2016,06,15,16,19,15.60
2016,06,15,16,20,15.70
2016,06,15,16,21,15.80
2016,06,15,16,22,15.70
2016,06,15,16,23,15.70
2016,06,15,16,24,15.60
2016,06,15,16,25,15.60
2016,06,15,16,26,15.50
2016,06,15,16,27,15.40
2016,06,15,16,28,15.40
2016,06,15,16,29,15.40
2016,06,15,16,30,15.40
2016,06,15,16,31,15.40
2016,06,15,16,32,15.30
2016,06,15,16,33,15.30
2016,06,15,16,34,15.30
2016,06,15,16,35,15.20
2016,06,15,16,36,15.10
2016,06,15,16,37,15.10
2016,06,15,16,38,15.10
2016,06,15,16,39,15.10
2016,06,15,16,40,15.20
2016,06,15,16,41,15.20
2016,06,15,16,42,15.20
2016,06,15,16,43,15.30
2016,06,15,16,44,15.30
2016,06,15,16,45,15.30
2016,06,15,16,46,15.40
2016,06,15,16,47,15.50
2016,06,15,16,48,15.60
2016,06,15,16,49,15.70
2016,06,15,16,50,15.90
2016,06,15,16,51,15.90
2016,06,15,16,52,16.00
2016,06,15,16,53,16.10
2016,06,15,16,54,16.10
2016,06,15,16,55,16.10
2016,06,15,16,56,15.90
2016,06,15,16,57,15.90
2016,06,15,16,58,15.80
2016,06,15,16,59,15.80
2016,06,15,17,00,15.80
2016,06,15,17,01,15.80
2016,06,15,17,02,15.80
2016,06,15,17,03,15.80
2016,06,15,17,04,15.90
2016,06,15,17,05,16.00
2016,06,15,17,06,16.10
2016,06,15,17,07,16.00
2016,06,15,17,08,15.90
2016,06,15,17,09,15.80
2016,06,15,17,10,15.80
2016,06,15,17,11,15.80
2016,06,15,17,12,15.80
2016,06,15,17,13,15.80
2016,06,15,17,14,15.80
2016,06,15,17,15,15.80
2016,06,15,17,16,15.80
2016,06,15,17,17,15.80
2016,06,15,17,18,15.90
2016,06,15,17,19,15.90
2016,06,15,17,20,15.90
2016,06,15,17,21,15.90
2016,06,15,17,22,16.00
2016,06,15,17,23,16.10
2016,06,15,17,24,16.10
2016,06,15,17,25,16.30
2016,06,15,17,26,16.40
2016,06,15,17,27,16.50
2016,06,15,17,28,16.60
2016,06,15,17,29,16.70
2016,06,15,17,30,16.70
2016,06,15,17,31,16.80
2016,06,15,17,32,16.80
2016,06,15,17,33,16.80
2016,06,15,17,34,16.80
2016,06,15,17,35,16.80
2016,06,15,17,36,16.70
2016,06,15,17,37,16.70
2016,06,15,17,38,16.70
2016,06,15,17,39,16.60
2016,06,15,17,40,16.60
2016,06,15,17,41,16.50
2016,06,15,17,42,16.40
2016,06,15,17,43,16.30
2016,06,15,17,44,16.10
2016,06,15,17,45,16.10